Time,TemperatureF,DewpointF,PressureIn,WindDirection,WindDirectionDegrees,WindSpeedMPH,WindSpeedGustMPH,Humidity,HourlyPrecipIn,Conditions,Clouds,dailyrainin,SoftwareType,DateUTC
2013-04-25 00:01:00,43.6,40.0,30.25,WNW,284,0.0,1.0,87,0.00,,,0.00,Wunderground v.1.15,2013-04-25 04:01:00,
2013-04-25 00:02:00,43.6,39.7,30.25,WSW,242,0.0,1.0,86,0.00,,,0.00,Wunderground v.1.15,2013-04-25 04:02:00,
2013-04-25 00:03:00,43.7,39.8,30.25,WSW,243,0.0,1.0,86,0.00,,,0.00,Wunderground v.1.15,2013-04-25 04:03:00,
2013-04-25 00:06:00,43.7,39.8,30.25,West,264,0.0,1.0,86,0.00,,,0.00,Wunderground v.1.15,2013-04-25 04:06:00,
2013-04-25 00:11:00,43.7,39.8,30.26,WSW,253,0.0,0.0,86,0.00,,,0.00,Wunderground v.1.15,2013-04-25 04:11:00,
2013-04-25 00:17:00,43.7,40.1,30.26,West,265,0.0,1.0,87,0.00,,,0.00,Wunderground v.1.15,2013-04-25 04:17:00,
2013-04-25 00:22:00,43.7,39.8,30.26,WSW,257,1.0,2.0,86,0.00,,,0.00,Wunderground v.1.15,2013-04-25 04:22:00,
2013-04-25 00:28:00,43.6,39.4,30.26,WNW,288,1.0,2.0,85,0.00,,,0.00,Wunderground v.1.15,2013-04-25 04:28:00,
2013-04-25 00:34:00,43.6,39.1,30.26,WSW,242,1.0,1.0,84,0.00,,,0.00,Wunderground v.1.15,2013-04-25 04:34:00,
2013-04-25 00:40:00,43.6,39.1,30.26,West,278,1.0,1.0,84,0.00,,,0.00,Wunderground v.1.15,2013-04-25 04:40:00,
2013-04-25 00:45:00,43.6,39.1,30.26,West,274,1.0,3.0,84,0.00,,,0.00,Wunderground v.1.15,2013-04-25 04:45:00,
2013-04-25 00:51:00,43.5,39.0,30.26,WNW,293,1.0,2.0,84,0.00,,,0.00,Wunderground v.1.15,2013-04-25 04:51:00,
2013-04-25 00:57:00,43.4,38.9,30.26,WSW,252,1.0,2.0,84,0.00,,,0.00,Wunderground v.1.15,2013-04-25 04:57:00,
2013-04-25 01:02:00,43.4,38.6,30.26,SW,228,1.0,3.0,83,0.00,,,0.00,Wunderground v.1.15,2013-04-25 05:02:00,
2013-04-25 01:08:00,43.3,38.5,30.27,WSW,248,1.0,3.0,83,0.00,,,0.00,Wunderground v.1.15,2013-04-25 05:08:00,
2013-04-25 01:13:00,43.3,38.8,30.27,West,270,1.0,2.0,84,0.00,,,0.00,Wunderground v.1.15,2013-04-25 05:13:00,
2013-04-25 01:19:00,43.2,38.4,30.27,WNW,287,2.0,4.0,83,0.00,,,0.00,Wunderground v.1.15,2013-04-25 05:19:00,
2013-04-25 01:25:00,43.1,38.3,30.27,WNW,287,3.0,4.0,83,0.00,,,0.00,Wunderground v.1.15,2013-04-25 05:25:00,
2013-04-25 01:31:00,43.0,38.2,30.28,West,262,2.0,2.0,83,0.00,,,0.00,Wunderground v.1.15,2013-04-25 05:31:00,
2013-04-25 01:36:00,42.9,38.1,30.28,West,270,2.0,3.0,83,0.00,,,0.00,Wunderground v.1.15,2013-04-25 05:36:00,
2013-04-25 01:42:00,42.8,38.0,30.28,West,277,2.0,3.0,83,0.00,,,0.00,Wunderground v.1.15,2013-04-25 05:42:00,
2013-04-25 01:48:00,42.7,38.2,30.27,WSW,254,2.0,5.0,84,0.00,,,0.00,Wunderground v.1.15,2013-04-25 05:48:00,
2013-04-25 01:53:00,42.6,38.1,30.28,WNW,285,1.0,3.0,84,0.00,,,0.00,Wunderground v.1.15,2013-04-25 05:53:00,
2013-04-25 01:59:00,42.5,38.0,30.28,West,271,2.0,3.0,84,0.00,,,0.00,Wunderground v.1.15,2013-04-25 05:59:00,
2013-04-25 02:04:00,42.4,38.2,30.28,WNW,289,2.0,2.0,85,0.00,,,0.00,Wunderground v.1.15,2013-04-25 06:04:00,
2013-04-25 02:10:00,42.3,38.1,30.28,West,273,1.0,1.0,85,0.00,,,0.00,Wunderground v.1.15,2013-04-25 06:10:00,
2013-04-25 02:16:00,42.2,38.3,30.28,West,263,1.0,2.0,86,0.00,,,0.00,Wunderground v.1.15,2013-04-25 06:16:00,
2013-04-25 02:21:00,42.1,38.2,30.28,West,277,1.0,2.0,86,0.00,,,0.00,Wunderground v.1.15,2013-04-25 06:21:00,
2013-04-25 02:27:00,42.0,38.1,30.28,West,270,1.0,3.0,86,0.00,,,0.00,Wunderground v.1.15,2013-04-25 06:27:00,
2013-04-25 02:33:00,41.9,38.3,30.28,West,270,1.0,2.0,87,0.00,,,0.00,Wunderground v.1.15,2013-04-25 06:33:00,
2013-04-25 02:38:00,41.7,37.8,30.28,West,270,1.0,2.0,86,0.00,,,0.00,Wunderground v.1.15,2013-04-25 06:38:00,
2013-04-25 02:44:00,41.6,37.7,30.27,WSW,245,1.0,2.0,86,0.00,,,0.00,Wunderground v.1.15,2013-04-25 06:44:00,
2013-04-25 02:50:00,41.3,37.4,30.28,WNW,290,1.0,2.0,86,0.00,,,0.00,Wunderground v.1.15,2013-04-25 06:50:00,
2013-04-25 02:56:00,41.2,37.3,30.28,West,281,1.0,3.0,86,0.00,,,0.00,Wunderground v.1.15,2013-04-25 06:56:00,
2013-04-25 03:01:00,41.1,37.2,30.27,West,271,1.0,1.0,86,0.00,,,0.00,Wunderground v.1.15,2013-04-25 07:01:00,
2013-04-25 03:07:00,40.9,37.0,30.27,West,269,1.0,1.0,86,0.00,,,0.00,Wunderground v.1.15,2013-04-25 07:07:00,
2013-04-25 03:12:00,40.7,36.8,30.27,WNW,287,0.0,1.0,86,0.00,,,0.00,Wunderground v.1.15,2013-04-25 07:12:00,
2013-04-25 03:18:00,40.5,36.9,30.27,WNW,287,0.0,1.0,87,0.00,,,0.00,Wunderground v.1.15,2013-04-25 07:18:00,
2013-04-25 03:23:00,40.2,36.6,30.26,WNW,287,0.0,0.0,87,0.00,,,0.00,Wunderground v.1.15,2013-04-25 07:23:00,
2013-04-25 03:29:00,39.9,36.6,30.26,WNW,287,0.0,0.0,88,0.00,,,0.00,Wunderground v.1.15,2013-04-25 07:29:00,
2013-04-25 03:35:00,39.5,36.2,30.26,WNW,287,0.0,0.0,88,0.00,,,0.00,Wunderground v.1.15,2013-04-25 07:35:00,
2013-04-25 03:41:00,39.3,36.3,30.26,WNW,287,0.0,0.0,89,0.00,,,0.00,Wunderground v.1.15,2013-04-25 07:41:00,
2013-04-25 03:47:00,39.1,36.1,30.26,WNW,287,0.0,1.0,89,0.00,,,0.00,Wunderground v.1.15,2013-04-25 07:47:00,
2013-04-25 03:52:00,38.8,35.8,30.27,WNW,287,0.0,0.0,89,0.00,,,0.00,Wunderground v.1.15,2013-04-25 07:52:00,
2013-04-25 03:58:00,38.4,35.7,30.27,WNW,287,0.0,0.0,90,0.00,,,0.00,Wunderground v.1.15,2013-04-25 07:58:00,
2013-04-25 04:04:00,38.0,35.6,30.27,WNW,287,0.0,0.0,91,0.00,,,0.00,Wunderground v.1.15,2013-04-25 08:04:00,
2013-04-25 04:10:00,37.7,35.3,30.27,WNW,287,0.0,0.0,91,0.00,,,0.00,Wunderground v.1.15,2013-04-25 08:10:00,
2013-04-25 04:15:00,37.5,35.1,30.27,WNW,287,0.0,0.0,91,0.00,,,0.00,Wunderground v.1.15,2013-04-25 08:15:00,
2013-04-25 04:21:00,37.2,35.1,30.27,WNW,287,0.0,0.0,92,0.00,,,0.00,Wunderground v.1.15,2013-04-25 08:21:00,
2013-04-25 04:27:00,36.9,34.8,30.27,WNW,287,0.0,0.0,92,0.00,,,0.00,Wunderground v.1.15,2013-04-25 08:27:00,
2013-04-25 04:33:00,36.8,35.0,30.27,WNW,287,0.0,0.0,93,0.00,,,0.00,Wunderground v.1.15,2013-04-25 08:33:00,
2013-04-25 04:39:00,36.8,35.0,30.27,WNW,287,0.0,0.0,93,0.00,,,0.00,Wunderground v.1.15,2013-04-25 08:39:00,
2013-04-25 04:45:00,36.9,35.1,30.27,WNW,287,0.0,0.0,93,0.00,,,0.00,Wunderground v.1.15,2013-04-25 08:45:00,
2013-04-25 04:50:00,37.0,34.9,30.26,WNW,287,0.0,0.0,92,0.00,,,0.00,Wunderground v.1.15,2013-04-25 08:50:00,
2013-04-25 04:56:00,36.8,34.4,30.27,WNW,287,0.0,0.0,91,0.00,,,0.00,Wunderground v.1.15,2013-04-25 08:56:00,
2013-04-25 05:01:00,36.5,34.4,30.27,WNW,287,0.0,0.0,92,0.00,,,0.00,Wunderground v.1.15,2013-04-25 09:01:00,
2013-04-25 05:07:00,36.8,34.7,30.27,WNW,287,0.0,0.0,92,0.00,,,0.00,Wunderground v.1.15,2013-04-25 09:07:00,
2013-04-25 05:13:00,36.9,34.5,30.27,WNW,287,0.0,0.0,91,0.00,,,0.00,Wunderground v.1.15,2013-04-25 09:13:00,
2013-04-25 05:19:00,36.6,34.2,30.28,WNW,283,0.0,0.0,91,0.00,,,0.00,Wunderground v.1.15,2013-04-25 09:19:00,
2013-04-25 05:25:00,36.2,33.8,30.28,WNW,283,0.0,0.0,91,0.00,,,0.00,Wunderground v.1.15,2013-04-25 09:25:00,
2013-04-25 05:31:00,36.1,34.0,30.28,WNW,282,0.0,0.0,92,0.00,,,0.00,Wunderground v.1.15,2013-04-25 09:31:00,
2013-04-25 05:37:00,36.1,34.3,30.28,WNW,283,0.0,0.0,93,0.00,,,0.00,Wunderground v.1.15,2013-04-25 09:37:00,
2013-04-25 05:43:00,36.3,34.2,30.28,WNW,282,0.0,1.0,92,0.00,,,0.00,Wunderground v.1.15,2013-04-25 09:43:00,
2013-04-25 05:49:00,36.3,34.2,30.29,WNW,289,0.0,1.0,92,0.00,,,0.00,Wunderground v.1.15,2013-04-25 09:49:00,
2013-04-25 05:54:00,36.4,34.3,30.29,West,281,0.0,1.0,92,0.00,,,0.00,Wunderground v.1.15,2013-04-25 09:54:00,
2013-04-25 06:00:00,36.5,34.1,30.29,West,281,0.0,0.0,91,0.00,,,0.00,Wunderground v.1.15,2013-04-25 10:00:00,
2013-04-25 06:06:00,36.6,34.2,30.29,West,281,0.0,0.0,91,0.00,,,0.00,Wunderground v.1.15,2013-04-25 10:06:00,
2013-04-25 06:11:00,36.7,34.3,30.29,West,281,0.0,0.0,91,0.00,,,0.00,Wunderground v.1.15,2013-04-25 10:11:00,
2013-04-25 06:17:00,36.7,34.0,30.29,West,281,0.0,0.0,90,0.00,,,0.00,Wunderground v.1.15,2013-04-25 10:17:00,
2013-04-25 06:22:00,36.5,34.1,30.30,West,281,0.0,0.0,91,0.00,,,0.00,Wunderground v.1.15,2013-04-25 10:22:00,
2013-04-25 06:28:00,36.5,34.1,30.30,WNW,300,0.0,1.0,91,0.00,,,0.00,Wunderground v.1.15,2013-04-25 10:28:00,
2013-04-25 06:34:00,36.3,33.9,30.30,WNW,300,0.0,0.0,91,0.00,,,0.00,Wunderground v.1.15,2013-04-25 10:34:00,
2013-04-25 06:39:00,36.1,33.7,30.31,WNW,300,0.0,0.0,91,0.00,,,0.00,Wunderground v.1.15,2013-04-25 10:39:00,
2013-04-25 06:45:00,36.1,33.7,30.31,WNW,301,0.0,0.0,91,0.00,,,0.00,Wunderground v.1.15,2013-04-25 10:45:00,
2013-04-25 06:51:00,36.0,33.6,30.31,WNW,300,0.0,0.0,91,0.00,,,0.00,Wunderground v.1.15,2013-04-25 10:51:00,
2013-04-25 07:01:00,35.4,33.0,30.32,WNW,301,0.0,0.0,91,0.00,,,0.00,Wunderground v.1.15,2013-04-25 11:01:00,
2013-04-25 07:06:00,34.9,32.5,30.32,WNW,301,0.0,0.0,91,0.00,,,0.00,Wunderground v.1.15,2013-04-25 11:06:00,
2013-04-25 07:12:00,34.6,32.5,30.32,WNW,301,0.0,0.0,92,0.00,,,0.00,Wunderground v.1.15,2013-04-25 11:12:00,
2013-04-25 07:17:00,34.7,32.9,30.32,WNW,301,0.0,0.0,93,0.00,,,0.00,Wunderground v.1.15,2013-04-25 11:17:00,
2013-04-25 07:23:00,34.8,33.2,30.33,WNW,300,0.0,0.0,94,0.00,,,0.00,Wunderground v.1.15,2013-04-25 11:23:00,
2013-04-25 07:28:00,35.2,33.6,30.33,WNW,300,0.0,0.0,94,0.00,,,0.00,Wunderground v.1.15,2013-04-25 11:28:00,
2013-04-25 07:34:00,35.6,34.0,30.32,WNW,300,0.0,0.0,94,0.00,,,0.00,Wunderground v.1.15,2013-04-25 11:34:00,
2013-04-25 07:39:00,36.1,34.3,30.33,WNW,301,0.0,0.0,93,0.00,,,0.00,Wunderground v.1.15,2013-04-25 11:39:00,
2013-04-25 07:44:00,37.2,35.4,30.33,WNW,299,0.0,0.0,93,0.00,,,0.00,Wunderground v.1.15,2013-04-25 11:44:00,
2013-04-25 07:50:00,38.5,36.1,30.33,WNW,299,0.0,0.0,91,0.00,,,0.00,Wunderground v.1.15,2013-04-25 11:50:00,
2013-04-25 07:56:00,38.9,35.9,30.33,WSW,256,0.0,0.0,89,0.00,,,0.00,Wunderground v.1.15,2013-04-25 11:56:00,
2013-04-25 08:01:00,39.3,36.6,30.33,WSW,256,0.0,0.0,90,0.00,,,0.00,Wunderground v.1.15,2013-04-25 12:01:00,
2013-04-25 08:07:00,40.0,37.0,30.33,SSW,208,0.0,0.0,89,0.00,,,0.00,Wunderground v.1.15,2013-04-25 12:07:00,
2013-04-25 08:13:00,41.0,37.4,30.33,SSW,212,0.0,0.0,87,0.00,,,0.00,Wunderground v.1.15,2013-04-25 12:13:00,
2013-04-25 08:18:00,41.5,37.3,30.33,West,259,0.0,0.0,85,0.00,,,0.00,Wunderground v.1.15,2013-04-25 12:18:00,
2013-04-25 08:24:00,41.8,37.3,30.33,SW,236,0.0,1.0,84,0.00,,,0.00,Wunderground v.1.15,2013-04-25 12:24:00,
2013-04-25 08:30:00,42.1,37.0,30.33,WSW,239,1.0,1.0,82,0.00,,,0.00,Wunderground v.1.15,2013-04-25 12:30:00,
2013-04-25 08:36:00,42.5,37.4,30.33,SW,214,1.0,2.0,82,0.00,,,0.00,Wunderground v.1.15,2013-04-25 12:36:00,
2013-04-25 08:41:00,42.8,37.4,30.34,West,276,1.0,1.0,81,0.00,,,0.00,Wunderground v.1.15,2013-04-25 12:41:00,
2013-04-25 08:47:00,43.2,37.8,30.34,WSW,246,1.0,1.0,81,0.00,,,0.00,Wunderground v.1.15,2013-04-25 12:47:00,
2013-04-25 08:52:00,44.0,38.9,30.34,NW,308,0.0,1.0,82,0.00,,,0.00,Wunderground v.1.15,2013-04-25 12:52:00,
2013-04-25 08:58:00,44.4,38.0,30.34,West,271,1.0,3.0,78,0.00,,,0.00,Wunderground v.1.15,2013-04-25 12:58:00,
2013-04-25 09:03:00,44.5,37.7,30.34,WSW,253,2.0,3.0,77,0.00,,,0.00,Wunderground v.1.15,2013-04-25 13:03:00,
2013-04-25 09:09:00,44.7,37.6,30.34,West,266,2.0,2.0,76,0.00,,,0.00,Wunderground v.1.15,2013-04-25 13:09:00,
2013-04-25 09:15:00,45.0,37.6,30.34,West,264,2.0,3.0,75,0.00,,,0.00,Wunderground v.1.15,2013-04-25 13:15:00,
2013-04-25 09:21:00,45.4,37.9,30.34,West,271,2.0,2.0,75,0.00,,,0.00,Wunderground v.1.15,2013-04-25 13:21:00,
2013-04-25 09:26:00,46.1,38.6,30.34,SSE,165,1.0,2.0,75,0.00,,,0.00,Wunderground v.1.15,2013-04-25 13:26:00,
2013-04-25 09:32:00,46.7,37.8,30.34,ESE,122,1.0,3.0,71,0.00,,,0.00,Wunderground v.1.15,2013-04-25 13:32:00,
2013-04-25 09:38:00,46.9,36.5,30.33,South,184,1.0,3.0,67,0.00,,,0.00,Wunderground v.1.15,2013-04-25 13:38:00,
2013-04-25 09:44:00,46.9,36.9,30.34,West,277,1.0,3.0,68,0.00,,,0.00,Wunderground v.1.15,2013-04-25 13:44:00,
2013-04-25 09:50:00,46.9,36.1,30.34,WSW,248,2.0,3.0,66,0.00,,,0.00,Wunderground v.1.15,2013-04-25 13:50:00,
2013-04-25 09:56:00,46.6,35.1,30.35,SW,224,3.0,5.0,64,0.00,,,0.00,Wunderground v.1.15,2013-04-25 13:56:00,
2013-04-25 10:01:00,46.8,36.4,30.35,WSW,245,2.0,2.0,67,0.00,,,0.00,Wunderground v.1.15,2013-04-25 14:01:00,
2013-04-25 10:07:00,47.4,36.2,30.35,WSW,245,2.0,4.0,65,0.00,,,0.00,Wunderground v.1.15,2013-04-25 14:07:00,
2013-04-25 10:13:00,47.7,36.5,30.36,SW,229,3.0,6.0,65,0.00,,,0.00,Wunderground v.1.15,2013-04-25 14:13:00,
2013-04-25 10:18:00,48.2,37.4,30.36,SE,143,2.0,6.0,66,0.00,,,0.00,Wunderground v.1.15,2013-04-25 14:18:00,
2013-04-25 10:25:00,49.0,38.1,30.35,SE,129,2.0,3.0,66,0.00,,,0.00,Wunderground v.1.15,2013-04-25 14:25:00,
2013-04-25 10:30:00,49.7,37.6,30.35,WSW,243,2.0,2.0,63,0.00,,,0.00,Wunderground v.1.15,2013-04-25 14:30:00,
2013-04-25 10:36:00,50.0,36.2,30.36,SW,236,2.0,5.0,59,0.00,,,0.00,Wunderground v.1.15,2013-04-25 14:36:00,
2013-04-25 10:42:00,49.5,36.6,30.35,SSW,203,3.0,4.0,61,0.00,,,0.00,Wunderground v.1.15,2013-04-25 14:42:00,
2013-04-25 10:48:00,50.4,37.4,30.36,SW,233,2.0,5.0,61,0.00,,,0.00,Wunderground v.1.15,2013-04-25 14:48:00,
2013-04-25 10:54:00,50.9,38.3,30.36,SSW,205,2.0,4.0,62,0.00,,,0.00,Wunderground v.1.15,2013-04-25 14:54:00,
2013-04-25 11:00:00,51.2,38.6,30.35,SW,232,3.0,3.0,62,0.00,,,0.00,Wunderground v.1.15,2013-04-25 15:00:00,
2013-04-25 11:05:00,51.2,37.8,30.35,SSW,194,3.0,4.0,60,0.00,,,0.00,Wunderground v.1.15,2013-04-25 15:05:00,
2013-04-25 11:11:00,51.4,37.1,30.35,SSE,159,3.0,3.0,58,0.00,,,0.00,Wunderground v.1.15,2013-04-25 15:11:00,
2013-04-25 11:17:00,51.6,37.3,30.35,South,186,2.0,3.0,58,0.00,,,0.00,Wunderground v.1.15,2013-04-25 15:17:00,
2013-04-25 11:23:00,52.3,38.8,30.35,SSW,203,2.0,3.0,60,0.00,,,0.00,Wunderground v.1.15,2013-04-25 15:23:00,
2013-04-25 11:29:00,52.6,36.9,30.35,SSE,161,2.0,5.0,55,0.00,,,0.00,Wunderground v.1.15,2013-04-25 15:29:00,
2013-04-25 11:35:00,52.1,35.0,30.36,SSE,156,3.0,4.0,52,0.00,,,0.00,Wunderground v.1.15,2013-04-25 15:35:00,
2013-04-25 11:41:00,51.9,35.8,30.36,West,267,2.0,3.0,54,0.00,,,0.00,Wunderground v.1.15,2013-04-25 15:41:00,
2013-04-25 11:46:00,52.6,37.3,30.36,SSW,205,1.0,4.0,56,0.00,,,0.00,Wunderground v.1.15,2013-04-25 15:46:00,
2013-04-25 11:52:00,53.1,37.3,30.36,SW,236,1.0,4.0,55,0.00,,,0.00,Wunderground v.1.15,2013-04-25 15:52:00,
2013-04-25 11:58:00,53.0,37.3,30.36,SSE,148,2.0,4.0,55,0.00,,,0.00,Wunderground v.1.15,2013-04-25 15:58:00,
2013-04-25 12:04:00,52.9,36.2,30.36,WNW,287,3.0,8.0,53,0.00,,,0.00,Wunderground v.1.15,2013-04-25 16:04:00,
2013-04-25 12:09:00,52.3,36.1,30.36,SSW,200,3.0,8.0,54,0.00,,,0.00,Wunderground v.1.15,2013-04-25 16:09:00,
2013-04-25 12:15:00,52.4,36.2,30.35,SE,124,2.0,4.0,54,0.00,,,0.00,Wunderground v.1.15,2013-04-25 16:15:00,
2013-04-25 12:21:00,53.9,38.1,30.35,South,180,2.0,2.0,55,0.00,,,0.00,Wunderground v.1.15,2013-04-25 16:21:00,
2013-04-25 12:27:00,54.1,35.9,30.35,WSW,240,3.0,4.0,50,0.00,,,0.00,Wunderground v.1.15,2013-04-25 16:27:00,
2013-04-25 12:33:00,53.6,36.4,30.35,SW,232,3.0,5.0,52,0.00,,,0.00,Wunderground v.1.15,2013-04-25 16:33:00,
2013-04-25 12:38:00,53.9,39.0,30.35,SW,217,2.0,5.0,57,0.00,,,0.00,Wunderground v.1.15,2013-04-25 16:38:00,
2013-04-25 12:44:00,54.8,37.0,30.35,WNW,294,2.0,5.0,51,0.00,,,0.00,Wunderground v.1.15,2013-04-25 16:44:00,
2013-04-25 12:50:00,54.4,36.6,30.35,ESE,115,3.0,3.0,51,0.00,,,0.00,Wunderground v.1.15,2013-04-25 16:50:00,
2013-04-25 12:55:00,55.0,37.7,30.35,South,187,2.0,4.0,52,0.00,,,0.00,Wunderground v.1.15,2013-04-25 16:55:00,
2013-04-25 13:01:00,55.3,37.5,30.35,WSW,250,3.0,4.0,51,0.00,,,0.00,Wunderground v.1.15,2013-04-25 17:01:00,
2013-04-25 13:07:00,54.8,33.3,30.35,West,274,4.0,7.0,44,0.00,,,0.00,Wunderground v.1.15,2013-04-25 17:07:00,
2013-04-25 13:12:00,53.8,34.6,30.35,WSW,246,6.0,6.0,48,0.00,,,0.00,Wunderground v.1.15,2013-04-25 17:12:00,
2013-04-25 13:18:00,54.3,33.4,30.35,WNW,289,4.0,6.0,45,0.00,,,0.00,Wunderground v.1.15,2013-04-25 17:18:00,
2013-04-25 13:24:00,54.6,33.1,30.35,NW,305,4.0,7.0,44,0.00,,,0.00,Wunderground v.1.15,2013-04-25 17:24:00,
2013-04-25 13:29:00,54.5,35.7,30.35,SSW,198,4.0,4.0,49,0.00,,,0.00,Wunderground v.1.15,2013-04-25 17:29:00,
2013-04-25 13:35:00,55.4,36.5,30.35,WSW,238,3.0,5.0,49,0.00,,,0.00,Wunderground v.1.15,2013-04-25 17:35:00,
2013-04-25 13:41:00,56.1,38.2,30.35,WSW,250,3.0,3.0,51,0.00,,,0.00,Wunderground v.1.15,2013-04-25 17:41:00,
2013-04-25 13:46:00,56.0,36.0,30.35,WSW,250,3.0,8.0,47,0.00,,,0.00,Wunderground v.1.15,2013-04-25 17:46:00,
2013-04-25 13:52:00,55.3,33.7,30.35,West,280,5.0,9.0,44,0.00,,,0.00,Wunderground v.1.15,2013-04-25 17:52:00,
2013-04-25 13:58:00,55.2,37.4,30.34,WSW,247,5.0,9.0,51,0.00,,,0.00,Wunderground v.1.15,2013-04-25 17:58:00,
2013-04-25 14:03:00,55.7,36.3,30.34,SSE,165,4.0,6.0,48,0.00,,,0.00,Wunderground v.1.15,2013-04-25 18:03:00,
2013-04-25 14:09:00,55.8,36.9,30.34,WNW,285,4.0,9.0,49,0.00,,,0.00,Wunderground v.1.15,2013-04-25 18:09:00,
2013-04-25 14:14:00,56.3,38.4,30.35,WSW,239,4.0,6.0,51,0.00,,,0.00,Wunderground v.1.15,2013-04-25 18:14:00,
2013-04-25 14:20:00,57.0,37.5,30.34,SW,218,2.0,5.0,48,0.00,,,0.00,Wunderground v.1.15,2013-04-25 18:20:00,
2013-04-25 14:25:00,57.7,37.6,30.34,SSE,155,3.0,6.0,47,0.00,,,0.00,Wunderground v.1.15,2013-04-25 18:25:00,
2013-04-25 14:31:00,57.9,37.8,30.34,WSW,258,4.0,7.0,47,0.00,,,0.00,Wunderground v.1.15,2013-04-25 18:31:00,
2013-04-25 14:37:00,56.5,36.0,30.34,West,264,3.0,7.0,46,0.00,,,0.00,Wunderground v.1.15,2013-04-25 18:37:00,
2013-04-25 14:42:00,57.1,40.6,30.34,SE,139,3.0,3.0,54,0.00,,,0.00,Wunderground v.1.15,2013-04-25 18:42:00,
2013-04-25 14:48:00,57.4,38.4,30.33,WSW,249,3.0,4.0,49,0.00,,,0.00,Wunderground v.1.15,2013-04-25 18:48:00,
2013-04-25 14:54:00,57.5,39.5,30.33,ESE,114,2.0,6.0,51,0.00,,,0.00,Wunderground v.1.15,2013-04-25 18:54:00,
2013-04-25 15:00:00,57.9,37.2,30.33,SW,235,3.0,5.0,46,0.00,,,0.00,Wunderground v.1.15,2013-04-25 19:00:00,
2013-04-25 15:06:00,58.0,35.0,30.33,West,276,4.0,5.0,42,0.00,,,0.00,Wunderground v.1.15,2013-04-25 19:06:00,
2013-04-25 15:12:00,57.7,38.7,30.33,West,270,3.0,5.0,49,0.00,,,0.00,Wunderground v.1.15,2013-04-25 19:12:00,
2013-04-25 15:17:00,58.3,38.7,30.33,South,186,3.0,6.0,48,0.00,,,0.00,Wunderground v.1.15,2013-04-25 19:17:00,
2013-04-25 15:23:00,58.1,35.7,30.33,WSW,242,3.0,5.0,43,0.00,,,0.00,Wunderground v.1.15,2013-04-25 19:23:00,
2013-04-25 15:29:00,58.1,38.5,30.33,WSW,257,2.0,6.0,48,0.00,,,0.00,Wunderground v.1.15,2013-04-25 19:29:00,
2013-04-25 15:34:00,58.6,37.3,30.32,WSW,250,3.0,8.0,45,0.00,,,0.00,Wunderground v.1.15,2013-04-25 19:34:00,
2013-04-25 15:41:00,58.7,38.0,30.32,WSW,245,4.0,5.0,46,0.00,,,0.00,Wunderground v.1.15,2013-04-25 19:41:00,
2013-04-25 15:47:00,59.1,39.4,30.32,SSW,210,3.0,5.0,48,0.00,,,0.00,Wunderground v.1.15,2013-04-25 19:47:00,
2013-04-25 15:53:00,59.5,37.6,30.32,WSW,249,4.0,4.0,44,0.00,,,0.00,Wunderground v.1.15,2013-04-25 19:53:00,
2013-04-25 15:58:00,59.2,37.9,30.32,WNW,287,4.0,6.0,45,0.00,,,0.00,Wunderground v.1.15,2013-04-25 19:58:00,
2013-04-25 16:04:00,58.9,37.6,30.32,WSW,240,5.0,8.0,45,0.00,,,0.00,Wunderground v.1.15,2013-04-25 20:04:00,
2013-04-25 16:10:00,59.3,37.9,30.31,West,267,4.0,5.0,45,0.00,,,0.00,Wunderground v.1.15,2013-04-25 20:10:00,
2013-04-25 16:16:00,59.0,37.7,30.32,SW,236,4.0,8.0,45,0.00,,,0.00,Wunderground v.1.15,2013-04-25 20:16:00,
2013-04-25 16:21:00,59.0,38.2,30.32,NW,305,6.0,8.0,46,0.00,,,0.00,Wunderground v.1.15,2013-04-25 20:21:00,
2013-04-25 16:27:00,58.9,37.6,30.32,WSW,243,8.0,13.0,45,0.00,,,0.00,Wunderground v.1.15,2013-04-25 20:27:00,
2013-04-25 16:33:00,58.7,37.4,30.32,SW,233,7.0,7.0,45,0.00,,,0.00,Wunderground v.1.15,2013-04-25 20:33:00,
2013-04-25 16:38:00,59.1,37.2,30.31,WNW,302,6.0,9.0,44,0.00,,,0.00,Wunderground v.1.15,2013-04-25 20:38:00,
2013-04-25 16:44:00,59.9,39.1,30.32,West,262,6.0,8.0,46,0.00,,,0.00,Wunderground v.1.15,2013-04-25 20:44:00,
2013-04-25 16:49:00,59.3,38.5,30.32,SW,235,5.0,5.0,46,0.00,,,0.00,Wunderground v.1.15,2013-04-25 20:49:00,
2013-04-25 16:55:00,58.2,36.4,30.32,WSW,238,5.0,7.0,44,0.00,,,0.00,Wunderground v.1.15,2013-04-25 20:55:00,
2013-04-25 17:00:00,57.8,37.1,30.32,WSW,248,5.0,6.0,46,0.00,,,0.00,Wunderground v.1.15,2013-04-25 21:00:00,
2013-04-25 17:06:00,57.5,37.4,30.31,SW,226,5.0,6.0,47,0.00,,,0.00,Wunderground v.1.15,2013-04-25 21:06:00,
2013-04-25 17:12:00,57.9,38.8,30.32,WSW,245,5.0,6.0,49,0.00,,,0.00,Wunderground v.1.15,2013-04-25 21:12:00,
2013-04-25 17:17:00,58.6,39.5,30.32,West,259,4.0,6.0,49,0.00,,,0.00,Wunderground v.1.15,2013-04-25 21:17:00,
2013-04-25 17:23:00,58.5,37.8,30.32,WSW,253,4.0,4.0,46,0.00,,,0.00,Wunderground v.1.15,2013-04-25 21:23:00,
2013-04-25 17:29:00,59.0,38.8,30.32,West,269,3.0,6.0,47,0.00,,,0.00,Wunderground v.1.15,2013-04-25 21:29:00,
2013-04-25 17:34:00,58.3,37.6,30.32,WNW,289,4.0,7.0,46,0.00,,,0.00,Wunderground v.1.15,2013-04-25 21:34:00,
2013-04-25 17:40:00,57.4,37.3,30.32,WSW,243,5.0,5.0,47,0.00,,,0.00,Wunderground v.1.15,2013-04-25 21:40:00,
2013-04-25 17:46:00,57.2,37.7,30.32,WSW,257,5.0,6.0,48,0.00,,,0.00,Wunderground v.1.15,2013-04-25 21:46:00,
2013-04-25 17:52:00,57.2,39.7,30.32,WSW,250,3.0,4.0,52,0.00,,,0.00,Wunderground v.1.15,2013-04-25 21:52:00,
2013-04-25 17:58:00,58.3,40.7,30.32,WNW,287,2.0,4.0,52,0.00,,,0.00,Wunderground v.1.15,2013-04-25 21:58:00,
2013-04-25 18:04:00,57.8,38.2,30.32,West,281,3.0,4.0,48,0.00,,,0.00,Wunderground v.1.15,2013-04-25 22:04:00,
2013-04-25 18:10:00,57.8,38.8,30.32,WSW,249,3.0,3.0,49,0.00,,,0.00,Wunderground v.1.15,2013-04-25 22:10:00,
2013-04-25 18:16:00,57.6,39.1,30.33,WNW,291,3.0,4.0,50,0.00,,,0.00,Wunderground v.1.15,2013-04-25 22:16:00,
2013-04-25 18:22:00,57.5,40.0,30.33,WSW,246,2.0,3.0,52,0.00,,,0.00,Wunderground v.1.15,2013-04-25 22:22:00,
2013-04-25 18:28:00,58.2,40.1,30.32,SW,232,2.0,3.0,51,0.00,,,0.00,Wunderground v.1.15,2013-04-25 22:28:00,
2013-04-25 18:34:00,58.3,40.7,30.32,West,276,1.0,4.0,52,0.00,,,0.00,Wunderground v.1.15,2013-04-25 22:34:00,
2013-04-25 18:40:00,57.6,39.1,30.32,WSW,245,2.0,3.0,50,0.00,,,0.00,Wunderground v.1.15,2013-04-25 22:40:00,
2013-04-25 18:46:00,57.9,40.4,30.32,WSW,238,2.0,3.0,52,0.00,,,0.00,Wunderground v.1.15,2013-04-25 22:46:00,
2013-04-25 18:52:00,58.1,40.6,30.32,SSW,198,1.0,2.0,52,0.00,,,0.00,Wunderground v.1.15,2013-04-25 22:52:00,
2013-04-25 18:58:00,58.0,38.9,30.32,WSW,246,2.0,3.0,49,0.00,,,0.00,Wunderground v.1.15,2013-04-25 22:58:00,
2013-04-25 19:04:00,57.7,39.2,30.32,WNW,287,2.0,4.0,50,0.00,,,0.00,Wunderground v.1.15,2013-04-25 23:04:00,
2013-04-25 19:09:00,57.4,40.4,30.33,WSW,246,2.0,3.0,53,0.00,,,0.00,Wunderground v.1.15,2013-04-25 23:09:00,
2013-04-25 19:15:00,57.1,39.1,30.33,SW,232,2.0,6.0,51,0.00,,,0.00,Wunderground v.1.15,2013-04-25 23:15:00,
2013-04-25 19:21:00,56.8,38.9,30.33,WSW,246,2.0,3.0,51,0.00,,,0.00,Wunderground v.1.15,2013-04-25 23:21:00,
2013-04-25 19:26:00,57.0,39.5,30.32,West,264,2.0,3.0,52,0.00,,,0.00,Wunderground v.1.15,2013-04-25 23:26:00,
2013-04-25 19:32:00,57.1,39.6,30.32,WSW,238,2.0,5.0,52,0.00,,,0.00,Wunderground v.1.15,2013-04-25 23:32:00,
2013-04-25 19:38:00,56.7,39.3,30.32,WSW,256,2.0,5.0,52,0.00,,,0.00,Wunderground v.1.15,2013-04-25 23:38:00,
2013-04-25 19:43:00,56.2,39.3,30.32,WNW,288,2.0,4.0,53,0.00,,,0.00,Wunderground v.1.15,2013-04-25 23:43:00,
2013-04-25 19:49:00,56.1,38.7,30.32,SW,235,2.0,4.0,52,0.00,,,0.00,Wunderground v.1.15,2013-04-25 23:49:00,
2013-04-25 19:55:00,55.8,38.9,30.32,West,278,1.0,2.0,53,0.00,,,0.00,Wunderground v.1.15,2013-04-25 23:55:00,
2013-04-25 20:00:00,55.6,39.2,30.33,SW,236,1.0,1.0,54,0.00,,,0.00,Wunderground v.1.15,2013-04-26 00:00:00,
2013-04-25 20:06:00,55.1,38.7,30.33,WSW,240,0.0,1.0,54,0.00,,,0.00,Wunderground v.1.15,2013-04-26 00:06:00,
2013-04-25 20:11:00,54.5,38.7,30.33,WSW,242,0.0,0.0,55,0.00,,,0.00,Wunderground v.1.15,2013-04-26 00:11:00,
2013-04-25 20:17:00,53.8,38.9,30.32,WSW,242,0.0,0.0,57,0.00,,,0.00,Wunderground v.1.15,2013-04-26 00:17:00,
2013-04-25 20:23:00,53.3,38.9,30.32,WSW,242,0.0,1.0,58,0.00,,,0.00,Wunderground v.1.15,2013-04-26 00:23:00,
2013-04-25 20:29:00,52.5,38.6,30.33,WSW,242,0.0,1.0,59,0.00,,,0.00,Wunderground v.1.15,2013-04-26 00:29:00,
2013-04-25 20:34:00,52.1,39.1,30.33,WSW,242,0.0,0.0,61,0.00,,,0.00,Wunderground v.1.15,2013-04-26 00:34:00,
2013-04-25 20:40:00,51.5,38.5,30.33,WSW,242,0.0,0.0,61,0.00,,,0.00,Wunderground v.1.15,2013-04-26 00:40:00,
2013-04-25 20:45:00,51.1,39.3,30.33,WSW,242,0.0,0.0,64,0.00,,,0.00,Wunderground v.1.15,2013-04-26 00:45:00,
2013-04-25 20:51:00,50.7,39.4,30.33,WSW,242,0.0,0.0,65,0.00,,,0.00,Wunderground v.1.15,2013-04-26 00:51:00,
2013-04-25 20:57:00,50.2,38.9,30.33,WSW,242,0.0,0.0,65,0.00,,,0.00,Wunderground v.1.15,2013-04-26 00:57:00,
2013-04-25 21:02:00,50.0,39.1,30.33,WSW,243,0.0,0.0,66,0.00,,,0.00,Wunderground v.1.15,2013-04-26 01:02:00,
2013-04-25 21:08:00,50.0,39.1,30.33,WSW,242,0.0,0.0,66,0.00,,,0.00,Wunderground v.1.15,2013-04-26 01:08:00,
2013-04-25 21:13:00,49.7,39.2,30.34,WSW,242,0.0,0.0,67,0.00,,,0.00,Wunderground v.1.15,2013-04-26 01:13:00,
2013-04-25 21:19:00,49.1,39.7,30.34,WSW,242,0.0,0.0,70,0.00,,,0.00,Wunderground v.1.15,2013-04-26 01:19:00,
2013-04-25 21:25:00,48.7,39.7,30.34,WSW,242,0.0,0.0,71,0.00,,,0.00,Wunderground v.1.15,2013-04-26 01:25:00,
2013-04-25 21:30:00,48.7,40.4,30.34,WSW,243,0.0,0.0,73,0.00,,,0.00,Wunderground v.1.15,2013-04-26 01:30:00,
2013-04-25 21:36:00,48.5,39.9,30.34,WSW,242,0.0,0.0,72,0.00,,,0.00,Wunderground v.1.15,2013-04-26 01:36:00,
2013-04-25 21:42:00,48.3,39.7,30.34,WSW,243,0.0,0.0,72,0.00,,,0.00,Wunderground v.1.15,2013-04-26 01:42:00,
2013-04-25 21:48:00,48.2,39.6,30.35,WSW,242,0.0,0.0,72,0.00,,,0.00,Wunderground v.1.15,2013-04-26 01:48:00,
2013-04-25 21:53:00,48.0,40.1,30.35,WSW,242,0.0,0.0,74,0.00,,,0.00,Wunderground v.1.15,2013-04-26 01:53:00,
2013-04-25 21:59:00,47.6,40.1,30.35,WSW,242,0.0,0.0,75,0.00,,,0.00,Wunderground v.1.15,2013-04-26 01:59:00,
2013-04-25 22:05:00,47.2,40.0,30.36,WSW,242,0.0,0.0,76,0.00,,,0.00,Wunderground v.1.15,2013-04-26 02:05:00,
2013-04-25 22:11:00,46.8,39.6,30.36,WSW,243,0.0,0.0,76,0.00,,,0.00,Wunderground v.1.15,2013-04-26 02:11:00,
2013-04-25 22:16:00,46.7,39.5,30.36,WSW,242,0.0,0.0,76,0.00,,,0.00,Wunderground v.1.15,2013-04-26 02:16:00,
2013-04-25 22:22:00,46.5,39.7,30.36,WSW,242,0.0,0.0,77,0.00,,,0.00,Wunderground v.1.15,2013-04-26 02:22:00,
2013-04-25 22:27:00,46.1,39.6,30.36,WSW,242,0.0,0.0,78,0.00,,,0.00,Wunderground v.1.15,2013-04-26 02:27:00,
2013-04-25 22:34:00,45.9,39.8,30.37,WSW,242,0.0,0.0,79,0.00,,,0.00,Wunderground v.1.15,2013-04-26 02:34:00,
2013-04-25 22:40:00,46.1,39.9,30.37,WSW,243,0.0,0.0,79,0.00,,,0.00,Wunderground v.1.15,2013-04-26 02:40:00,
2013-04-25 22:46:00,46.1,39.9,30.37,WSW,242,0.0,0.0,79,0.00,,,0.00,Wunderground v.1.15,2013-04-26 02:46:00,
2013-04-25 22:52:00,45.9,39.4,30.37,WSW,243,0.0,0.0,78,0.00,,,0.00,Wunderground v.1.15,2013-04-26 02:52:00,
2013-04-25 22:57:00,46.3,39.5,30.37,NW,319,0.0,0.0,77,0.00,,,0.00,Wunderground v.1.15,2013-04-26 02:57:00,
2013-04-25 23:09:00,47.3,39.1,30.37,WNW,302,0.0,0.0,73,0.00,,,0.00,Wunderground v.1.15,2013-04-26 03:09:00,
2013-04-25 23:14:00,47.4,39.2,30.37,NW,304,0.0,0.0,73,0.00,,,0.00,Wunderground v.1.15,2013-04-26 03:14:00,
2013-04-25 23:20:00,47.3,39.1,30.38,WNW,290,0.0,0.0,73,0.00,,,0.00,Wunderground v.1.15,2013-04-26 03:20:00,
2013-04-25 23:25:00,47.3,38.7,30.38,WNW,288,0.0,1.0,72,0.00,,,0.00,Wunderground v.1.15,2013-04-26 03:25:00,
2013-04-25 23:31:00,47.9,38.9,30.38,WNW,289,0.0,0.0,71,0.00,,,0.00,Wunderground v.1.15,2013-04-26 03:31:00,
2013-04-25 23:36:00,48.0,39.0,30.38,WNW,289,0.0,0.0,71,0.00,,,0.00,Wunderground v.1.15,2013-04-26 03:36:00,
2013-04-25 23:42:00,47.6,39.0,30.38,WNW,300,0.0,0.0,72,0.00,,,0.00,Wunderground v.1.15,2013-04-26 03:42:00,
2013-04-25 23:48:00,46.5,39.0,30.38,WNW,301,0.0,0.0,75,0.00,,,0.00,Wunderground v.1.15,2013-04-26 03:48:00,
2013-04-25 23:54:00,47.2,38.3,30.38,NW,313,1.0,6.0,71,0.00,,,0.00,Wunderground v.1.15,2013-04-26 03:54:00,